Погода в Усть-Сахрае

Россия / Республика Адыгея     44°12′29″N   40°16′47″E
темп.,
°C
ветер,
м/с
пор.,
м/с
влажн.,
%
обл.,
%
осадки,
мм/ч
давл.,
гПа
погр.,
м
24 мая, вт
вт2400:00+6ю2191100 0.0 100920
03:00+7ююз228699 0.0 100933
06:00+8юз1285100 0.2 101095
09:00+10юз1274100 0.6 1010565
12:00+12ю1275100 0.8 1010767
15:00+10з2395100 2.6 1012243
18:00+11юз128916 2.7 1013228
21:00+8ссз009691 3.4 101513
25 мая, ср
ср2500:00+6ююз229683 0.1 101741
03:00+6ю2292100 0.1 101840
06:00+7ю119175 0.3 101927
09:00+12з126762 0.3 1019793
12:00+13сз335895 0.6 10191322
15:00+12сз347075 1.2 1020672
18:00+13ссз126996 0.3 1020392
21:00+9юз1183100 0.4 102210
26 мая, чт
чт2600:00+9ююз118464 0.0 102214
03:00+6ю229174 0.0 102331
06:00+8ю1278100 0.0 102370
09:00+15ссв115111 0.0 10211391
12:00+18с343830 0.0 10192120
15:00+19с343885 0.0 10182045
18:00+16с235910 0.0 1019791
21:00+9ю229375 0.0 102115
27 мая, пт
пт2700:00+8ююз228767 0.0 102023
03:00+7ю227235 0.0 102127
06:00+10ю2248100 0.0 102141
09:00+14ссв114551 0.0 1020361
12:00+19ссз332719 0.0 10191378
15:00+20ссз343239 0.0 10181784
18:00+17с23585 0.0 1018808
21:00+10ююв22950 0.0 102018
28 мая, сб
сб2800:00+9ю22860 0.0 101932
03:00+8ю22760 0.0 101831
06:00+10ю22660 0.0 101748
09:00+19с11440 0.0 1015704
12:00+23с33370 0.0 10131753
15:00+23с334027 0.0 10131974
18:00+20всв23670 0.1 1013467
21:00+14ююв22940 0.1 101428